This is the latest recevied weather packets stored in our database for station/object N5COP-13. If no packets are shown the sender has not sent any weather packets the latest 10 day(s).
| Time | Temp. | Humidity | Pressure | Rain* | Wind** | Luminosity | Snow |
|---|---|---|---|---|---|---|---|
| 1778108866 | 16.11° C | 43% | 1014.6 hPa | 0 mm | - | 332 W/m² | - |
| 1778108563 | 16.67° C | 42% | 1014.5 hPa | 0 mm | - | 351 W/m² | - |
| 1778108254 | 16.67° C | 43% | 1014.5 hPa | 0 mm | - | 370 W/m² | - |
| 1778107951 | 16.67° C | 43% | 1014.5 hPa | 0 mm | - | 384 W/m² | - |
| 1778107647 | 16.67° C | 43% | 1014.5 hPa | 0 mm | - | 401 W/m² | - |
| 1778107345 | 16.67° C | 42% | 1014.6 hPa | 0 mm | - | 414 W/m² | - |
| 1778107041 | 16.67° C | 42% | 1014.7 hPa | 0 mm | - | 428 W/m² | - |
| 1778106737 | 17.22° C | 42% | 1014.7 hPa | 0 mm | - | 444 W/m² | - |
| 1778106434 | 16.67° C | 42% | 1015 hPa | 0 mm | - | 457 W/m² | - |
| 1778106129 | 17.22° C | 41% | 1014.9 hPa | 0 mm | - | 473 W/m² | - |
| 1778105828 | 17.22° C | 41% | 1014.6 hPa | 0 mm | - | 488 W/m² | - |
| 1778105525 | 17.22° C | 41% | 1014.7 hPa | 0 mm | - | 507 W/m² | - |
| 1778105222 | 17.22° C | 41% | 1014.6 hPa | 0 mm | - | 521 W/m² | - |
| 1778104917 | 17.22° C | 41% | 1014.6 hPa | 0 mm | - | 533 W/m² | - |
| 1778104614 | 17.22° C | 41% | 1014.6 hPa | 0 mm | - | 549 W/m² | - |
| 1778104309 | 17.22° C | 41% | 1014.9 hPa | 0 mm | - | 413 W/m² | - |
| 1778104006 | 17.22° C | 41% | 1014.9 hPa | 0 mm | - | 589 W/m² | - |
| 1778103704 | 17.78° C | 40% | 1014.7 hPa | 0 mm | - | 432 W/m² | - |
| 1778103402 | 17.78° C | 40% | 1014.9 hPa | 0 mm | - | 655 W/m² | - |
| 1778103099 | 16.67° C | 42% | 1014.7 hPa | 0 mm | - | 700 W/m² | - |
| 1778102796 | 17.22° C | 39% | 1014.9 hPa | 0 mm | - | 240 W/m² | - |
| 1778102491 | 18.89° C | 39% | 1014.9 hPa | 0 mm | - | 208 W/m² | - |
| 1778102187 | 17.78° C | 40% | 1014.9 hPa | 0 mm | - | 810 W/m² | - |
| 1778101884 | 17.22° C | 40% | 1014.9 hPa | 0 mm | - | 794 W/m² | - |
| 1778101581 | 17.22° C | 41% | 1015.1 hPa | 0 mm | - | 323 W/m² | - |
* Rain latest hour (hover to see other rain measurements)
** Current wind speed in m/s (hover to see current wind gust speed)